sat.trackr.live / text

‹ back to catalog

STARLINK-33937

NORAD 63704 · 2025-087H

PAYLOAD ACTIVE UNKNOWN

§ Identity

Operator
Country
US
Launch date
2025-04-28
Launch site
AFWTR
Launch vehicle
Mass (kg)
RCS (m²)

Purposes: comms

External: N2YO · Heavens-Above · Gunter

§ Orbital elements

Epoch: 2026-09-20T20:28:25.289472Z

Period
93.85 min
Inclination
53.1591°
Eccentricity
0.0001203
Mean motion
15.34394519 rev/d
Perigee alt
461.9 km
Apogee alt
463.5 km
Semi-major
6,840.9 km
B*
5.7224e-4
RAAN
32.0766°
Arg perigee
52.0024°
Mean anomaly
308.1087°
Rev number
7,909

§ Raw data

STARLINK-339371 63704U 25087H   26263.85307048  .00019003  00000+0  57224-3 0  99912 63704  53.1591  32.0766 0001203  52.0024 308.1087 15.34394519 79095

JSON: /api/v1/satellites/63704 · /tle

For live sub-satellite position, see the globe view (requires WebGL).

§ Visibility from observer

Set your observer location to see the next 7 days of passes ≥ 10°. The values pass through the URL so the page stays shareable.

No JS? Fill the form by hand. The geolocation button needs JavaScript.